STARLINK-35860 (66881 NORAD) Tracking and Keplerian Element Data

This shows tracking and keplerian element data for the satellite.

Feedback or suggestion? Click here.




ElementValue
Catalog66881
NameSTARLINK-35860
Epoch Orbit363
Epoch Day354.25003472
Epoch Year2025
RAAN36.1334
Inclination53.1574
Eccentricity0.0001271
Argument of Perigee98.3295
Mean Anonmoly131.498
Mean Motion15.74201644
Decay Rate-0.0005339
L11 66881U 25283D 25354.25003472 -.00053390 00000+0 -36234-3 0 9993
L22 66881 53.1574 36.1334 0001271 98.3295 131.4980 15.74201644 3635



Live tracking and technical data element details for STARLINK-35860 (NORAD 66881). STARLINK-35860 can be tracked NOW for your location showing map with azimuth and elevation plus other details from your city location.







IsCatalogInMostPopularTable: catalog: 66881, numindb: 15
Update: records affected: 1



GetName: 66881 STARLINK-35860

Hit Count: updated at: Tue, 21 Apr 2026 20:38:36 GMT